This demonstration page uses our WeatherBlox Daily Observations layout. Learn more.

Left ArrowRight Arrow

40.97296, -117.73568

Hourly Observations for January 3, 2022

Temp ( °F °C ) Dew Point ( °F °C ) Humidity (%) Winds ( mph kmh ) Pressure ( in mb ) Visibility ( mi km ) Precip ( " mm )
12:56 am 00:56 Clear 16 -8.9 6 -14.4 65 65 ENE 12 19 30.18 1022 10 16 0.00 0.00
1:56 am 01:56 Clear 9 -12.8 2 -16.7 73 73 ESE 5 7 30.18 1022 10 16 0.00 0.00
2:56 am 02:56 Clear 13 -10.6 4 -15.6 67 67 NE 10 17 30.17 1022 10 16 0.00 0.00
3:56 am 03:56 Clear 13 -10.6 4 -15.6 67 67 ENE 3 6 30.16 1022 10 16 0.00 0.00
4:56 am 04:56 Clear 15 -9.4 5 -15 64 64 NE 8 13 30.16 1021 10 16 0.00 0.00
5:56 am 05:56 Clear 14 -10 4 -15.6 64 64 NE 8 13 30.16 1021 10 16 0.00 0.00
6:56 am 06:56 Clear 6 -14.4 0 -17.8 76 76 Calm 30.18 1022 10 16 0.00 0.00
7:56 am 07:56 Sunny 12 -11.1 4 -15.6 70 70 NE 8 13 30.15 1021 10 16 0.00 0.00
8:56 am 08:56 Sunny 13 -10.6 4 -15.6 67 67 NE 9 15 30.16 1021 10 16 0.00 0.00
9:56 am 09:56 Sunny 23 -5 10 -12.2 57 57 WNW 3 6 30.11 1020 10 16 0.00 0.00
10:56 am 10:56 Sunny 35 1.7 16 -8.9 46 46 S 21 33 30.04 1017 10 16 0.00 0.00
11:56 am 11:56 Sunny 35 1.7 18 -7.8 50 50 S 20 31 29.99 1016 10 16 0.00 0.00
12:56 pm 12:56 Sunny 35 1.7 18 -7.8 50 50 SSE 20 31 29.97 1015 10 16 0.00 0.00
1:56 pm 13:56 Sunny 37 2.8 19 -7.2 48 48 SSE 23 37 29.96 1015 10 16 0.00 0.00
2:56 pm 14:56 Sunny 36 2.2 19 -7.2 50 50 S 20 31 29.93 1014 10 16 0.00 0.00
3:56 pm 15:56 Sunny 36 2.2 17 -8.3 46 46 S 17 28 29.94 1014 10 16 0.00 0.00
4:56 pm 16:56 Clear 35 1.7 16 -8.9 46 46 S 14 22 29.94 1014 10 16 0.00 0.00
5:56 pm 17:56 Clear 36 2.2 17 -8.3 46 46 S 21 33 29.91 1013 10 16 0.00 0.00
6:56 pm 18:56 Clear 43 6.1 19 -7.2 38 38 SW 21 33 29.92 1013 10 16 0.00 0.00
7:56 pm 19:56 Clear 43 6.1 20 -6.7 40 40 SSW 20 31 29.89 1012 10 16 0.00 0.00
8:56 pm 20:56 Clear 44 6.7 22 -5.6 41 41 SW 30 48 29.86 1011 10 16 0.00 0.00
9:56 pm 21:56 Clear 45 7.2 25 -3.9 46 46 SW 31 50 29.84 1011 10 16 0.00 0.00
10:56 pm 22:56 Clear 45 7.2 26 -3.3 48 48 WSW 32 52 29.84 1011 10 16 0.00 0.00
11:56 pm 23:56 Clear 44 6.7 27 -2.8 51 51 WSW 18 30 29.87 1012 10 16 0.00 0.00

Powered by AerisWeather